Time,TemperatureF,DewpointF,PressureIn,WindDirection,WindDirectionDegrees,WindSpeedMPH,WindSpeedGustMPH,Humidity,HourlyPrecipIn,Conditions,Clouds,dailyrainin,SoftwareType,DateUTC
2013-02-18 00:04:00,41.3,40.0,29.99,WSW,248,0.0,0.0,95,0.00,,---,0.00,VWS V14.01,2013-02-18 08:04:00,
2013-02-18 00:09:00,41.3,40.2,29.99,WSW,248,0.0,0.0,96,0.00,,---,0.00,VWS V14.01,2013-02-18 08:09:00,
2013-02-18 00:14:00,41.3,40.2,29.99,WSW,248,0.0,0.0,96,0.00,,---,0.00,VWS V14.01,2013-02-18 08:14:00,
2013-02-18 00:19:00,41.2,39.9,29.99,WSW,248,0.0,0.0,95,0.00,,---,0.00,VWS V14.01,2013-02-18 08:19:00,
2013-02-18 00:24:00,40.9,39.6,29.99,WSW,248,0.0,0.0,95,0.00,,---,0.00,VWS V14.01,2013-02-18 08:24:00,
2013-02-18 00:29:00,40.8,39.8,29.99,WSW,248,0.0,0.0,96,0.00,,---,0.00,VWS V14.01,2013-02-18 08:29:00,
2013-02-18 00:34:00,40.8,39.8,29.99,WSW,248,0.0,0.0,96,0.00,,---,0.00,VWS V14.01,2013-02-18 08:34:00,
2013-02-18 00:39:00,40.9,39.8,29.99,WSW,248,0.0,0.0,96,0.00,,---,0.00,VWS V14.01,2013-02-18 08:39:00,
2013-02-18 00:44:00,41.1,40.0,29.99,WSW,248,0.0,0.0,96,0.00,,---,0.00,VWS V14.01,2013-02-18 08:44:00,
2013-02-18 00:49:00,41.5,40.5,29.99,WSW,248,0.0,0.0,96,0.00,,---,0.00,VWS V14.01,2013-02-18 08:49:00,
2013-02-18 00:54:00,41.8,40.8,29.99,WSW,248,0.0,0.0,96,0.00,,---,0.00,VWS V14.01,2013-02-18 08:54:00,
2013-02-18 00:59:00,42.1,41.0,29.99,WSW,248,0.0,0.0,96,0.00,,---,0.00,VWS V14.01,2013-02-18 08:59:00,
2013-02-18 01:04:00,42.2,41.1,29.99,WSW,248,0.0,0.0,96,0.00,,---,0.00,VWS V14.01,2013-02-18 09:04:00,
2013-02-18 01:09:00,42.1,41.0,29.99,WSW,248,0.0,0.0,96,0.00,,---,0.00,VWS V14.01,2013-02-18 09:09:00,
2013-02-18 01:14:00,41.9,40.8,29.99,WSW,248,0.0,0.0,96,0.00,,---,0.00,VWS V14.01,2013-02-18 09:14:00,
2013-02-18 01:19:00,41.9,40.8,29.99,WSW,248,0.0,0.0,96,0.00,,---,0.00,VWS V14.01,2013-02-18 09:19:00,
2013-02-18 01:24:00,41.9,40.8,29.99,WSW,248,0.0,0.0,96,0.00,,---,0.00,VWS V14.01,2013-02-18 09:24:00,
2013-02-18 01:29:00,42.1,41.0,29.99,WSW,248,0.0,0.0,96,0.00,,---,0.00,VWS V14.01,2013-02-18 09:29:00,
2013-02-18 01:34:00,42.2,41.1,29.99,WSW,248,0.0,0.0,96,0.00,,---,0.00,VWS V14.01,2013-02-18 09:34:00,
2013-02-18 01:39:00,42.2,41.1,29.99,WSW,248,0.0,0.0,96,0.00,,---,0.00,VWS V14.01,2013-02-18 09:39:00,
2013-02-18 01:45:00,42.3,41.2,29.99,WSW,248,0.0,0.0,96,0.00,,---,0.00,VWS V14.01,2013-02-18 09:45:00,
2013-02-18 01:50:00,42.3,41.2,29.99,WSW,248,0.0,0.0,96,0.00,,---,0.00,VWS V14.01,2013-02-18 09:50:00,
2013-02-18 01:55:00,42.5,41.4,29.99,WSW,248,0.0,0.0,96,0.00,,---,0.00,VWS V14.01,2013-02-18 09:55:00,
2013-02-18 02:00:00,42.5,41.4,29.99,WSW,248,0.0,0.0,96,0.00,,---,0.00,VWS V14.01,2013-02-18 10:00:00,
2013-02-18 02:05:00,42.5,41.4,29.98,WSW,248,0.0,0.0,96,0.00,,---,0.00,VWS V14.01,2013-02-18 10:05:00,
2013-02-18 02:10:00,42.6,41.5,29.98,WSW,248,0.0,0.0,96,0.00,,---,0.00,VWS V14.01,2013-02-18 10:10:00,
2013-02-18 02:15:00,42.8,41.7,29.98,WSW,248,0.0,0.0,96,0.00,,---,0.00,VWS V14.01,2013-02-18 10:15:00,
2013-02-18 02:20:00,42.8,41.7,29.98,WSW,248,0.0,0.0,96,0.00,,---,0.00,VWS V14.01,2013-02-18 10:20:00,
2013-02-18 02:25:00,42.9,41.8,29.98,WSW,248,0.0,0.0,96,0.00,,---,0.00,VWS V14.01,2013-02-18 10:25:00,
2013-02-18 02:30:00,43.1,42.0,29.98,WSW,248,0.0,0.0,96,0.00,,---,0.00,VWS V14.01,2013-02-18 10:30:00,
2013-02-18 02:35:00,43.2,42.1,29.98,WSW,248,0.0,0.0,96,0.00,,---,0.00,VWS V14.01,2013-02-18 10:35:00,
2013-02-18 02:40:00,43.3,42.2,29.98,WSW,248,0.0,0.0,96,0.00,,---,0.00,VWS V14.01,2013-02-18 10:40:00,
2013-02-18 02:45:00,43.5,42.7,29.98,WSW,248,0.0,0.0,97,0.00,,---,0.00,VWS V14.01,2013-02-18 10:45:00,
2013-02-18 02:50:00,43.6,42.8,29.98,WSW,248,0.0,0.0,97,0.00,,---,0.00,VWS V14.01,2013-02-18 10:50:00,
2013-02-18 02:55:00,43.9,43.1,29.98,WSW,248,0.0,0.0,97,0.00,,---,0.00,VWS V14.01,2013-02-18 10:55:00,
2013-02-18 03:00:00,44.1,43.3,29.98,WSW,248,0.0,0.0,97,0.00,,---,0.00,VWS V14.01,2013-02-18 11:00:00,
2013-02-18 03:05:00,44.2,43.4,29.97,WSW,248,0.0,0.0,97,0.00,,---,0.00,VWS V14.01,2013-02-18 11:05:00,
2013-02-18 03:10:00,44.5,43.7,29.97,WSW,248,0.0,0.0,97,0.00,,---,0.00,VWS V14.01,2013-02-18 11:10:00,
2013-02-18 03:15:00,44.6,43.8,29.97,WSW,248,0.0,0.0,97,0.00,,---,0.00,VWS V14.01,2013-02-18 11:15:00,
2013-02-18 03:20:00,44.8,44.0,29.97,WSW,248,0.0,0.0,97,0.00,,---,0.00,VWS V14.01,2013-02-18 11:20:00,
2013-02-18 03:25:00,44.9,44.1,29.97,WSW,248,0.0,0.0,97,0.00,,---,0.00,VWS V14.01,2013-02-18 11:25:00,
2013-02-18 03:30:00,45.2,44.4,29.97,WSW,248,0.0,0.0,97,0.00,,---,0.00,VWS V14.01,2013-02-18 11:30:00,
2013-02-18 03:35:00,45.4,44.6,29.97,WSW,248,0.0,0.0,97,0.00,,---,0.00,VWS V14.01,2013-02-18 11:35:00,
2013-02-18 03:40:00,45.5,44.7,29.97,WSW,248,0.0,0.0,97,0.00,,---,0.00,VWS V14.01,2013-02-18 11:40:00,
2013-02-18 03:46:00,45.7,44.9,29.97,WSW,248,0.0,0.0,97,0.00,,---,0.00,VWS V14.01,2013-02-18 11:46:00,
2013-02-18 03:51:00,45.8,45.0,29.96,WSW,248,0.0,0.0,97,0.00,,---,0.00,VWS V14.01,2013-02-18 11:51:00,
2013-02-18 03:56:00,46.0,45.2,29.96,WSW,248,0.0,1.0,97,0.00,,---,0.00,VWS V14.01,2013-02-18 11:56:00,
2013-02-18 04:01:00,46.1,45.3,29.96,WSW,248,0.0,1.0,97,0.00,,---,0.00,VWS V14.01,2013-02-18 12:01:00,
2013-02-18 04:06:00,46.2,45.4,29.96,WSW,248,0.0,0.0,97,0.00,,---,0.00,VWS V14.01,2013-02-18 12:06:00,
2013-02-18 04:11:00,46.2,45.4,29.96,WSW,248,0.0,0.0,97,0.00,,---,0.00,VWS V14.01,2013-02-18 12:11:00,
2013-02-18 04:16:00,46.2,45.4,29.96,WSW,248,0.0,0.0,97,0.00,,---,0.00,VWS V14.01,2013-02-18 12:16:00,
2013-02-18 04:21:00,46.2,45.4,29.96,WSW,248,0.0,0.0,97,0.00,,---,0.00,VWS V14.01,2013-02-18 12:21:00,
2013-02-18 04:26:00,46.2,45.4,29.96,WSW,248,0.0,0.0,97,0.00,,---,0.00,VWS V14.01,2013-02-18 12:26:00,
2013-02-18 04:31:00,46.2,45.4,29.96,WSW,248,0.0,0.0,97,0.00,,---,0.00,VWS V14.01,2013-02-18 12:31:00,
2013-02-18 04:36:00,46.2,45.4,29.96,WSW,248,0.0,0.0,97,0.00,,---,0.00,VWS V14.01,2013-02-18 12:36:00,
2013-02-18 04:41:00,46.4,45.6,29.96,WSW,248,0.0,0.0,97,0.00,,---,0.00,VWS V14.01,2013-02-18 12:41:00,
2013-02-18 04:46:00,46.4,45.6,29.96,WSW,248,0.0,0.0,97,0.00,,---,0.00,VWS V14.01,2013-02-18 12:46:00,
2013-02-18 04:51:00,46.4,45.6,29.96,WSW,248,0.0,0.0,97,0.00,,---,0.00,VWS V14.01,2013-02-18 12:51:00,
2013-02-18 04:56:00,46.4,45.6,29.96,WSW,248,0.0,0.0,97,0.00,,---,0.00,VWS V14.01,2013-02-18 12:56:00,
2013-02-18 05:01:00,46.2,45.4,29.96,WSW,248,0.0,0.0,97,0.00,,---,0.00,VWS V14.01,2013-02-18 13:01:00,
2013-02-18 05:06:00,46.2,45.4,29.96,WSW,248,0.0,0.0,97,0.00,,---,0.00,VWS V14.01,2013-02-18 13:06:00,
2013-02-18 05:11:00,46.2,45.4,29.96,WSW,248,0.0,0.0,97,0.00,,---,0.00,VWS V14.01,2013-02-18 13:11:00,
2013-02-18 05:16:00,46.1,45.3,29.96,WSW,248,0.0,0.0,97,0.00,,---,0.00,VWS V14.01,2013-02-18 13:16:00,
2013-02-18 05:21:00,45.5,44.4,29.96,WSW,248,0.0,0.0,96,0.00,,---,0.00,VWS V14.01,2013-02-18 13:21:00,
2013-02-18 05:26:00,45.1,44.3,29.96,WSW,248,0.0,0.0,97,0.00,,---,0.00,VWS V14.01,2013-02-18 13:26:00,
2013-02-18 05:31:00,44.9,44.1,29.96,WSW,248,0.0,0.0,97,0.00,,---,0.00,VWS V14.01,2013-02-18 13:31:00,
2013-02-18 05:36:00,44.8,44.0,29.96,WSW,248,0.0,0.0,97,0.00,,---,0.00,VWS V14.01,2013-02-18 13:36:00,
2013-02-18 05:41:00,44.6,43.8,29.96,WSW,248,0.0,0.0,97,0.00,,---,0.00,VWS V14.01,2013-02-18 13:41:00,
2013-02-18 05:46:00,44.5,43.7,29.97,WSW,248,0.0,0.0,97,0.00,,---,0.00,VWS V14.01,2013-02-18 13:46:00,
2013-02-18 05:51:00,44.2,43.1,29.97,WSW,248,0.0,0.0,96,0.00,,---,0.00,VWS V14.01,2013-02-18 13:51:00,
2013-02-18 05:56:00,44.1,43.0,29.97,WSW,248,0.0,0.0,96,0.00,,---,0.00,VWS V14.01,2013-02-18 13:56:00,
2013-02-18 06:01:00,43.9,43.1,29.97,WSW,248,0.0,0.0,97,0.00,,---,0.00,VWS V14.01,2013-02-18 14:01:00,
2013-02-18 06:06:00,43.9,43.1,29.97,WSW,248,0.0,0.0,97,0.00,,---,0.00,VWS V14.01,2013-02-18 14:06:00,
2013-02-18 06:11:00,43.9,43.1,29.97,WSW,248,0.0,0.0,97,0.00,,---,0.00,VWS V14.01,2013-02-18 14:11:00,
2013-02-18 06:16:00,43.9,43.1,29.97,WSW,248,0.0,0.0,97,0.00,,---,0.00,VWS V14.01,2013-02-18 14:16:00,
2013-02-18 06:21:00,43.9,43.1,29.97,WSW,248,0.0,0.0,97,0.00,,---,0.00,VWS V14.01,2013-02-18 14:21:00,
2013-02-18 06:26:00,43.9,43.1,29.97,WSW,248,0.0,0.0,97,0.00,,---,0.00,VWS V14.01,2013-02-18 14:26:00,
2013-02-18 06:32:00,43.9,43.1,29.97,WSW,248,0.0,0.0,97,0.00,,---,0.00,VWS V14.01,2013-02-18 14:32:00,
2013-02-18 06:37:00,43.9,43.1,29.97,WSW,248,0.0,0.0,97,0.00,,---,0.00,VWS V14.01,2013-02-18 14:37:00,
2013-02-18 06:42:00,43.9,43.1,29.97,WSW,248,0.0,0.0,97,0.00,,---,0.00,VWS V14.01,2013-02-18 14:42:00,
2013-02-18 06:47:00,43.9,43.1,29.97,WSW,248,0.0,0.0,97,0.00,,---,0.00,VWS V14.01,2013-02-18 14:47:00,
2013-02-18 06:52:00,43.9,43.1,29.97,WSW,248,0.0,0.0,97,0.00,,---,0.00,VWS V14.01,2013-02-18 14:52:00,
2013-02-18 06:57:00,43.9,43.1,29.97,WSW,248,0.0,0.0,97,0.00,,---,0.00,VWS V14.01,2013-02-18 14:57:00,
2013-02-18 07:02:00,43.9,43.1,29.97,WSW,248,0.0,0.0,97,0.00,,---,0.00,VWS V14.01,2013-02-18 15:02:00,
2013-02-18 07:07:00,44.1,43.3,29.97,WSW,248,0.0,0.0,97,0.00,,---,0.00,VWS V14.01,2013-02-18 15:07:00,
2013-02-18 07:15:00,44.1,43.3,29.97,WSW,248,0.0,0.0,97,0.00,,---,0.00,VWS V14.01,2013-02-18 15:15:00,
2013-02-18 07:20:00,44.1,43.3,29.98,WSW,248,0.0,0.0,97,0.00,,---,0.00,VWS V14.01,2013-02-18 15:20:00,
2013-02-18 07:25:00,44.1,43.3,29.98,WSW,248,0.0,0.0,97,0.00,,---,0.00,VWS V14.01,2013-02-18 15:25:00,
2013-02-18 07:30:00,44.2,43.4,29.98,WSW,248,0.0,0.0,97,0.00,,---,0.00,VWS V14.01,2013-02-18 15:30:00,
2013-02-18 07:35:00,44.2,43.4,29.98,WSW,248,0.0,0.0,97,0.00,,---,0.00,VWS V14.01,2013-02-18 15:35:00,
2013-02-18 07:40:00,44.3,43.5,29.98,WSW,248,0.0,0.0,97,0.00,,---,0.00,VWS V14.01,2013-02-18 15:40:00,
2013-02-18 07:45:00,44.3,43.5,29.98,WSW,248,0.0,0.0,97,0.00,,---,0.00,VWS V14.01,2013-02-18 15:45:00,
2013-02-18 07:50:00,44.5,43.7,29.99,WSW,248,0.0,0.0,97,0.00,,---,0.00,VWS V14.01,2013-02-18 15:50:00,
2013-02-18 07:55:00,44.5,43.7,29.99,WSW,248,0.0,0.0,97,0.00,,---,0.00,VWS V14.01,2013-02-18 15:55:00,
2013-02-18 08:00:00,44.6,43.8,29.99,WSW,248,0.0,0.0,97,0.00,,---,0.00,VWS V14.01,2013-02-18 16:00:00,
2013-02-18 08:05:00,44.6,43.8,30.00,WSW,248,0.0,0.0,97,0.00,,---,0.00,VWS V14.01,2013-02-18 16:05:00,
2013-02-18 08:10:00,44.6,43.8,30.00,WSW,248,0.0,0.0,97,0.00,,---,0.00,VWS V14.01,2013-02-18 16:10:00,
2013-02-18 08:16:00,44.6,43.8,30.00,WSW,248,0.0,0.0,97,0.00,,---,0.00,VWS V14.01,2013-02-18 16:16:00,
2013-02-18 08:21:00,44.8,44.0,30.00,WSW,248,0.0,0.0,97,0.00,,---,0.00,VWS V14.01,2013-02-18 16:21:00,
2013-02-18 08:26:00,44.8,44.0,30.00,WSW,248,0.0,0.0,97,0.00,,---,0.00,VWS V14.01,2013-02-18 16:26:00,
2013-02-18 08:31:00,44.9,44.1,30.00,WSW,248,0.0,0.0,97,0.00,,---,0.00,VWS V14.01,2013-02-18 16:31:00,
2013-02-18 08:36:00,45.1,44.3,30.00,WSW,248,0.0,2.0,97,0.00,,---,0.00,VWS V14.01,2013-02-18 16:36:00,
2013-02-18 08:41:00,45.2,44.4,30.00,WSW,248,0.0,2.0,97,0.00,,---,0.00,VWS V14.01,2013-02-18 16:41:00,
2013-02-18 08:46:00,45.2,44.4,30.00,WSW,248,0.0,2.0,97,0.00,,---,0.00,VWS V14.01,2013-02-18 16:46:00,
2013-02-18 08:51:00,45.2,44.1,30.00,WSW,248,0.0,2.0,96,0.00,,---,0.00,VWS V14.01,2013-02-18 16:51:00,
2013-02-18 08:56:00,45.2,44.0,30.00,WSW,248,0.0,-999.0,96,-99.99,,,0.00,weatherlink.com 1.10,2013-02-18 16:56:00,
2013-02-18 09:01:00,45.1,44.0,30.00,WSW,248,0.0,2.0,96,0.00,,---,0.00,VWS V14.01,2013-02-18 17:01:00,
2013-02-18 09:06:00,45.1,44.0,30.00,WSW,248,0.0,0.0,96,0.01,,---,0.01,VWS V14.01,2013-02-18 17:06:00,
2013-02-18 09:11:00,44.8,43.7,30.00,WSW,248,0.0,0.0,96,0.01,,---,0.01,VWS V14.01,2013-02-18 17:11:00,
2013-02-18 09:16:00,44.6,43.5,30.00,WSW,248,0.0,0.0,96,0.01,,---,0.01,VWS V14.01,2013-02-18 17:16:00,
2013-02-18 09:21:00,44.8,43.7,30.01,WSW,248,0.0,0.0,96,0.01,,---,0.01,VWS V14.01,2013-02-18 17:21:00,
2013-02-18 09:26:00,44.8,43.7,30.01,WSW,248,0.0,0.0,96,0.01,,---,0.01,VWS V14.01,2013-02-18 17:26:00,
2013-02-18 09:31:00,44.9,43.8,30.01,WSW,248,0.0,0.0,96,0.01,,---,0.01,VWS V14.01,2013-02-18 17:31:00,
2013-02-18 09:36:00,44.9,43.8,30.01,WSW,248,0.0,0.0,96,0.01,,---,0.01,VWS V14.01,2013-02-18 17:36:00,
2013-02-18 09:41:00,45.2,44.4,30.01,WSW,248,0.0,0.0,97,0.01,,---,0.01,VWS V14.01,2013-02-18 17:41:00,
2013-02-18 09:46:00,45.2,44.1,30.01,WSW,248,0.0,0.0,96,0.01,,---,0.01,VWS V14.01,2013-02-18 17:46:00,
2013-02-18 09:51:00,45.4,44.6,30.01,WSW,248,0.0,0.0,97,0.01,,---,0.01,VWS V14.01,2013-02-18 17:51:00,
2013-02-18 09:56:00,45.5,44.4,30.01,WSW,248,0.0,0.0,96,0.01,,---,0.01,VWS V14.01,2013-02-18 17:56:00,
2013-02-18 10:01:00,45.5,44.4,30.01,WSW,248,0.0,0.0,96,0.02,,---,0.02,VWS V14.01,2013-02-18 18:01:00,
2013-02-18 10:06:00,45.8,45.0,30.01,WSW,248,0.0,0.0,97,0.02,,---,0.02,VWS V14.01,2013-02-18 18:06:00,
2013-02-18 10:11:00,46.0,45.2,30.01,WSW,248,0.0,0.0,97,0.02,,---,0.02,VWS V14.01,2013-02-18 18:11:00,
2013-02-18 10:16:00,46.1,45.3,30.02,WSW,248,0.0,0.0,97,0.02,,---,0.02,VWS V14.01,2013-02-18 18:16:00,
2013-02-18 10:22:00,46.2,45.4,30.02,WSW,248,0.0,0.0,97,0.02,,---,0.02,VWS V14.01,2013-02-18 18:22:00,
2013-02-18 10:27:00,46.7,45.9,30.02,WSW,248,0.0,0.0,97,0.02,,---,0.02,VWS V14.01,2013-02-18 18:27:00,
2013-02-18 10:32:00,47.1,46.3,30.02,WSW,248,0.0,0.0,97,0.02,,---,0.02,VWS V14.01,2013-02-18 18:32:00,
2013-02-18 10:37:00,47.6,46.8,30.02,WSW,248,0.0,0.0,97,0.01,,---,0.02,VWS V14.01,2013-02-18 18:37:00,
2013-02-18 10:42:00,48.0,47.2,30.02,WSW,248,0.0,0.0,97,0.01,,---,0.02,VWS V14.01,2013-02-18 18:42:00,
2013-02-18 10:47:00,48.3,47.5,30.02,WSW,248,3.0,5.0,97,0.01,,---,0.02,VWS V14.01,2013-02-18 18:47:00,
2013-02-18 10:52:00,48.6,47.8,30.02,WSW,248,0.0,5.0,97,0.01,,---,0.02,VWS V14.01,2013-02-18 18:52:00,
2013-02-18 10:57:00,48.8,47.7,30.02,WSW,248,2.0,5.0,96,0.01,,---,0.02,VWS V14.01,2013-02-18 18:57:00,
2013-02-18 11:02:00,48.9,47.8,30.02,WSW,254,0.0,0.0,96,0.00,,---,0.02,VWS V14.01,2013-02-18 19:02:00,
2013-02-18 11:07:00,49.2,48.1,30.02,WNW,287,2.0,6.0,96,0.00,,---,0.02,VWS V14.01,2013-02-18 19:07:00,
2013-02-18 11:12:00,49.2,47.8,30.02,WSW,241,6.0,8.0,95,0.00,,---,0.02,VWS V14.01,2013-02-18 19:12:00,
2013-02-18 11:17:00,49.1,47.5,30.02,WNW,294,2.0,9.0,94,0.00,,---,0.02,VWS V14.01,2013-02-18 19:17:00,
2013-02-18 11:22:00,49.5,47.3,30.02,WSW,246,3.0,9.0,92,0.00,,---,0.02,VWS V14.01,2013-02-18 19:22:00,
2013-02-18 11:27:00,49.8,47.3,30.02,West,266,5.0,9.0,91,0.00,,---,0.02,VWS V14.01,2013-02-18 19:27:00,
2013-02-18 11:33:00,50.1,47.0,30.01,WSW,252,5.0,5.0,89,0.00,,---,0.02,VWS V14.01,2013-02-18 19:33:00,
2013-02-18 11:38:00,50.4,46.7,30.01,WSW,248,5.0,9.0,87,0.00,,---,0.02,VWS V14.01,2013-02-18 19:38:00,
2013-02-18 11:43:00,50.7,46.7,30.01,WSW,248,0.0,9.0,86,0.00,,---,0.02,VWS V14.01,2013-02-18 19:43:00,
2013-02-18 11:48:00,51.1,46.8,30.01,WSW,254,4.0,9.0,85,0.00,,---,0.02,VWS V14.01,2013-02-18 19:48:00,
2013-02-18 11:53:00,51.1,45.8,30.01,West,267,0.0,9.0,82,0.00,,---,0.02,VWS V14.01,2013-02-18 19:53:00,
2013-02-18 11:58:00,51.6,47.0,30.01,West,277,0.0,-999.0,83,-99.99,,,0.02,weatherlink.com 1.10,2013-02-18 19:58:00,
2013-02-18 12:03:00,52.5,46.8,30.00,West,263,0.0,0.0,81,0.00,,---,0.02,VWS V14.01,2013-02-18 20:03:00,
2013-02-18 12:08:00,53.1,46.1,30.00,West,266,6.0,6.0,77,0.00,,---,0.02,VWS V14.01,2013-02-18 20:08:00,
2013-02-18 12:13:00,53.9,44.7,30.00,WSW,253,4.0,8.0,71,0.00,,---,0.02,VWS V14.01,2013-02-18 20:13:00,
2013-02-18 12:18:00,53.9,43.2,30.00,WSW,251,8.0,10.0,67,0.00,,---,0.02,VWS V14.01,2013-02-18 20:18:00,
2013-02-18 12:23:00,53.8,42.7,30.00,WSW,238,2.0,10.0,66,0.00,,---,0.02,VWS V14.01,2013-02-18 20:23:00,
2013-02-18 12:28:00,53.5,43.2,30.00,West,263,4.0,10.0,68,0.00,,---,0.02,VWS V14.01,2013-02-18 20:28:00,
2013-02-18 12:33:00,53.1,43.2,29.99,West,264,3.0,9.0,69,0.00,,---,0.02,VWS V14.01,2013-02-18 20:33:00,
2013-02-18 12:38:00,53.6,44.1,29.99,WNW,289,3.0,9.0,70,0.00,,---,0.02,VWS V14.01,2013-02-18 20:38:00,
2013-02-18 12:43:00,54.1,43.8,29.99,West,267,2.0,11.0,68,0.00,,---,0.02,VWS V14.01,2013-02-18 20:43:00,
2013-02-18 12:48:00,53.9,43.6,29.99,West,265,6.0,11.0,68,0.00,,---,0.02,VWS V14.01,2013-02-18 20:48:00,
2013-02-18 12:53:00,53.5,44.0,29.99,West,267,6.0,11.0,70,0.00,,---,0.02,VWS V14.01,2013-02-18 20:53:00,
2013-02-18 12:59:00,53.6,44.1,29.99,West,261,4.0,11.0,70,0.00,,---,0.02,VWS V14.01,2013-02-18 20:59:00,
2013-02-18 13:04:00,53.6,43.3,29.98,SW,226,8.0,9.0,68,0.00,,---,0.02,VWS V14.01,2013-02-18 21:04:00,
2013-02-18 13:09:00,53.5,43.2,29.98,West,272,7.0,10.0,68,0.00,,---,0.02,VWS V14.01,2013-02-18 21:09:00,
2013-02-18 13:14:00,52.9,42.3,29.98,WSW,257,8.0,13.0,67,0.00,,---,0.02,VWS V14.01,2013-02-18 21:14:00,
2013-02-18 13:19:00,52.5,42.3,29.98,West,265,10.0,13.0,68,0.00,,---,0.02,VWS V14.01,2013-02-18 21:19:00,
2013-02-18 13:24:00,52.3,42.1,29.98,WSW,240,5.0,13.0,68,0.00,,---,0.02,VWS V14.01,2013-02-18 21:24:00,
2013-02-18 13:29:00,52.3,42.5,29.98,WSW,248,3.0,13.0,69,0.00,,---,0.02,VWS V14.01,2013-02-18 21:29:00,
2013-02-18 13:34:00,52.2,42.0,29.98,SW,232,7.0,9.0,68,0.00,,---,0.02,VWS V14.01,2013-02-18 21:34:00,
2013-02-18 13:39:00,51.9,41.7,29.98,WNW,290,2.0,11.0,68,0.00,,---,0.02,VWS V14.01,2013-02-18 21:39:00,
2013-02-18 13:44:00,52.0,41.8,29.98,West,279,6.0,11.0,68,0.00,,---,0.02,VWS V14.01,2013-02-18 21:44:00,
2013-02-18 13:49:00,52.3,42.1,29.97,WSW,254,2.0,11.0,68,0.00,,---,0.02,VWS V14.01,2013-02-18 21:49:00,
2013-02-18 13:54:00,52.3,41.7,29.97,West,273,7.0,11.0,67,0.00,,---,0.02,VWS V14.01,2013-02-18 21:54:00,
2013-02-18 13:59:00,52.2,42.0,29.97,West,269,5.0,11.0,68,0.00,,---,0.02,VWS V14.01,2013-02-18 21:59:00,
2013-02-18 14:04:00,51.9,41.7,29.97,West,274,1.0,7.0,68,0.00,,---,0.02,VWS V14.01,2013-02-18 22:04:00,
2013-02-18 14:09:00,51.9,41.3,29.97,West,263,1.0,9.0,67,0.00,,---,0.02,VWS V14.01,2013-02-18 22:09:00,
2013-02-18 14:14:00,51.7,41.5,29.97,West,269,3.0,10.0,68,0.00,,---,0.02,VWS V14.01,2013-02-18 22:14:00,
2013-02-18 14:19:00,51.6,41.4,29.97,WSW,239,7.0,10.0,68,0.00,,---,0.02,VWS V14.01,2013-02-18 22:19:00,
2013-02-18 14:24:00,51.7,41.9,29.97,WSW,242,0.0,10.0,69,0.00,,---,0.02,VWS V14.01,2013-02-18 22:24:00,
2013-02-18 14:30:00,51.9,41.7,29.97,SW,225,5.0,10.0,68,0.00,,---,0.02,VWS V14.01,2013-02-18 22:30:00,
2013-02-18 14:35:00,51.9,41.3,29.97,SW,227,6.0,10.0,67,0.00,,---,0.02,VWS V14.01,2013-02-18 22:35:00,
2013-02-18 14:40:00,52.0,41.8,29.97,WSW,252,0.0,10.0,68,0.00,,---,0.02,VWS V14.01,2013-02-18 22:40:00,
2013-02-18 14:45:00,52.0,41.4,29.97,West,265,1.0,10.0,67,0.00,,---,0.02,VWS V14.01,2013-02-18 22:45:00,
2013-02-18 14:50:00,52.0,41.8,29.96,West,262,2.0,10.0,68,0.00,,---,0.02,VWS V14.01,2013-02-18 22:50:00,
2013-02-18 14:55:00,52.0,41.4,29.96,West,269,2.0,10.0,67,0.00,,---,0.02,VWS V14.01,2013-02-18 22:55:00,
2013-02-18 15:00:00,52.0,41.4,29.96,WSW,254,7.0,10.0,67,0.00,,---,0.02,VWS V14.01,2013-02-18 23:00:00,
2013-02-18 15:05:00,51.9,41.7,29.96,WSW,254,4.0,6.0,68,0.00,,---,0.02,VWS V14.01,2013-02-18 23:05:00,
2013-02-18 15:10:00,51.9,41.3,29.96,WNW,285,5.0,6.0,67,0.00,,---,0.02,VWS V14.01,2013-02-18 23:10:00,
2013-02-18 15:15:00,51.9,40.9,29.96,WSW,248,6.0,11.0,66,0.00,,---,0.02,VWS V14.01,2013-02-18 23:15:00,
2013-02-18 15:20:00,51.7,40.7,29.96,West,281,3.0,11.0,66,0.00,,---,0.02,VWS V14.01,2013-02-18 23:20:00,
2013-02-18 15:25:00,51.7,41.1,29.96,SW,215,8.0,11.0,67,0.00,,---,0.02,VWS V14.01,2013-02-18 23:25:00,
2013-02-18 15:30:00,51.6,41.4,29.96,WSW,252,8.0,12.0,68,0.00,,---,0.02,VWS V14.01,2013-02-18 23:30:00,
2013-02-18 15:35:00,51.6,41.8,29.96,SW,214,9.0,9.0,69,0.00,,---,0.02,VWS V14.01,2013-02-18 23:35:00,
2013-02-18 15:40:00,51.4,42.0,29.96,WNW,284,9.0,11.0,70,0.00,,---,0.02,VWS V14.01,2013-02-18 23:40:00,
2013-02-18 15:45:00,51.4,42.0,29.96,WNW,298,5.0,11.0,70,0.00,,---,0.02,VWS V14.01,2013-02-18 23:45:00,
2013-02-18 15:50:00,51.4,42.3,29.96,West,260,7.0,11.0,71,0.00,,---,0.02,VWS V14.01,2013-02-18 23:50:00,
2013-02-18 15:55:00,51.3,42.6,29.96,WSW,240,2.0,11.0,72,0.00,,---,0.02,VWS V14.01,2013-02-18 23:55:00,
2013-02-18 16:00:00,51.1,42.4,29.96,WSW,254,10.0,11.0,72,0.00,,---,0.02,VWS V14.01,2013-02-19 00:00:00,
2013-02-18 16:06:00,50.8,42.1,29.96,WSW,247,5.0,10.0,72,0.00,,---,0.02,VWS V14.01,2013-02-19 00:06:00,
2013-02-18 16:11:00,50.7,42.0,29.96,West,266,7.0,12.0,72,0.00,,---,0.02,VWS V14.01,2013-02-19 00:11:00,
2013-02-18 16:16:00,50.4,42.1,29.96,West,279,7.0,13.0,73,0.00,,---,0.02,VWS V14.01,2013-02-19 00:16:00,
2013-02-18 16:21:00,50.2,41.5,29.96,West,271,6.0,13.0,72,0.00,,---,0.02,VWS V14.01,2013-02-19 00:21:00,
2013-02-18 16:26:00,50.1,41.1,29.96,WSW,239,7.0,13.0,71,0.00,,---,0.02,VWS V14.01,2013-02-19 00:26:00,
2013-02-18 16:31:00,50.1,41.8,29.96,SW,225,5.0,13.0,73,0.00,,---,0.02,VWS V14.01,2013-02-19 00:31:00,
2013-02-18 16:36:00,49.9,42.0,29.96,WSW,251,3.0,10.0,74,0.00,,---,0.02,VWS V14.01,2013-02-19 00:36:00,
2013-02-18 16:41:00,49.9,42.0,29.96,WSW,242,4.0,10.0,74,0.00,,---,0.02,VWS V14.01,2013-02-19 00:41:00,
2013-02-18 16:46:00,49.9,42.0,29.96,WNW,288,5.0,10.0,74,0.00,,---,0.02,VWS V14.01,2013-02-19 00:46:00,
2013-02-18 16:52:00,49.9,42.0,29.96,West,270,3.0,10.0,74,0.00,,---,0.02,VWS V14.01,2013-02-19 00:52:00,
2013-02-18 16:57:00,49.8,41.5,29.96,WNW,284,0.0,10.0,73,0.00,,---,0.02,VWS V14.01,2013-02-19 00:57:00,
2013-02-18 17:02:00,49.8,41.5,29.96,WNW,290,5.0,10.0,73,0.00,,---,0.02,VWS V14.01,2013-02-19 01:02:00,
2013-02-18 17:07:00,49.8,41.2,29.96,West,280,0.0,4.0,72,0.00,,---,0.02,VWS V14.01,2013-02-19 01:07:00,
2013-02-18 17:12:00,49.8,41.2,29.96,WNW,293,1.0,7.0,72,0.00,,---,0.02,VWS V14.01,2013-02-19 01:12:00,
2013-02-18 17:17:00,49.8,40.8,29.96,SW,232,4.0,9.0,71,0.00,,---,0.02,VWS V14.01,2013-02-19 01:17:00,
2013-02-18 17:22:00,49.5,40.1,29.96,WNW,289,11.0,11.0,70,0.00,,---,0.02,VWS V14.01,2013-02-19 01:22:00,
2013-02-18 17:27:00,49.5,39.8,29.96,West,261,3.0,11.0,69,0.00,,---,0.02,VWS V14.01,2013-02-19 01:27:00,
2013-02-18 17:32:00,49.4,39.3,29.95,WSW,238,7.0,11.0,68,0.00,,---,0.02,VWS V14.01,2013-02-19 01:32:00,
2013-02-18 17:37:00,49.4,39.3,29.95,SSW,192,2.0,9.0,68,0.00,,---,0.02,VWS V14.01,2013-02-19 01:37:00,
2013-02-18 17:42:00,49.4,38.9,29.95,SW,229,0.0,9.0,67,0.00,,---,0.02,VWS V14.01,2013-02-19 01:42:00,
2013-02-18 17:47:00,49.4,38.9,29.96,WSW,254,0.0,9.0,67,0.00,,---,0.02,VWS V14.01,2013-02-19 01:47:00,
2013-02-18 17:52:00,49.4,38.5,29.96,SW,235,6.0,11.0,66,0.00,,---,0.02,VWS V14.01,2013-02-19 01:52:00,
2013-02-18 17:57:00,49.4,38.9,29.96,SW,230,0.0,11.0,67,0.00,,---,0.02,VWS V14.01,2013-02-19 01:57:00,
2013-02-18 18:02:00,49.4,38.9,29.96,SSE,164,0.0,0.0,67,0.00,,---,0.02,VWS V14.01,2013-02-19 02:02:00,
2013-02-18 18:07:00,49.4,38.9,29.96,SSW,213,2.0,8.0,67,0.00,,---,0.02,VWS V14.01,2013-02-19 02:07:00,
2013-02-18 18:12:00,49.4,39.3,29.96,WSW,252,1.0,8.0,68,0.00,,---,0.02,VWS V14.01,2013-02-19 02:12:00,
2013-02-18 18:17:00,49.2,39.1,29.96,SW,223,3.0,8.0,68,0.00,,---,0.02,VWS V14.01,2013-02-19 02:17:00,
2013-02-18 18:22:00,49.2,39.1,29.96,WSW,255,0.0,8.0,68,0.00,,---,0.02,VWS V14.01,2013-02-19 02:22:00,
2013-02-18 18:27:00,49.2,39.1,29.96,SW,217,4.0,10.0,68,0.00,,---,0.02,VWS V14.01,2013-02-19 02:27:00,
2013-02-18 18:33:00,49.2,39.1,29.96,SW,219,0.0,4.0,68,0.00,,---,0.02,VWS V14.01,2013-02-19 02:33:00,
2013-02-18 18:38:00,49.2,39.1,29.96,WSW,251,2.0,5.0,68,0.00,,---,0.02,VWS V14.01,2013-02-19 02:38:00,
2013-02-18 18:43:00,49.1,39.0,29.96,WSW,237,4.0,7.0,68,0.00,,---,0.02,VWS V14.01,2013-02-19 02:43:00,
2013-02-18 18:48:00,48.9,39.2,29.96,WSW,248,0.0,8.0,69,0.00,,---,0.02,VWS V14.01,2013-02-19 02:48:00,
2013-02-18 18:53:00,48.9,39.6,29.96,SSW,211,0.0,9.0,70,0.00,,---,0.02,VWS V14.01,2013-02-19 02:53:00,
2013-02-18 18:58:00,48.8,40.2,29.96,WSW,252,0.0,9.0,72,0.00,,---,0.02,VWS V14.01,2013-02-19 02:58:00,
2013-02-18 19:03:00,48.8,40.9,29.97,SW,214,0.0,8.0,74,0.00,,---,0.02,VWS V14.01,2013-02-19 03:03:00,
2013-02-18 19:08:00,48.6,41.0,29.97,West,271,0.0,8.0,75,0.00,,---,0.02,VWS V14.01,2013-02-19 03:08:00,
2013-02-18 19:13:00,48.3,41.1,29.97,SSW,198,0.0,9.0,76,0.00,,---,0.02,VWS V14.01,2013-02-19 03:13:00,
2013-02-18 19:18:00,48.2,41.3,29.96,WSW,246,2.0,9.0,77,0.00,,---,0.02,VWS V14.01,2013-02-19 03:18:00,
2013-02-18 19:23:00,48.0,41.2,29.96,West,278,0.0,9.0,77,0.00,,---,0.02,VWS V14.01,2013-02-19 03:23:00,
2013-02-18 19:28:00,47.9,41.4,29.96,WSW,251,0.0,9.0,78,0.00,,---,0.02,VWS V14.01,2013-02-19 03:28:00,
2013-02-18 19:33:00,47.7,41.2,29.96,WSW,254,0.0,4.0,78,0.00,,---,0.02,VWS V14.01,2013-02-19 03:33:00,
2013-02-18 19:38:00,47.7,41.2,29.96,West,267,0.0,4.0,78,0.00,,---,0.02,VWS V14.01,2013-02-19 03:38:00,
2013-02-18 19:43:00,47.6,41.1,29.96,SW,223,0.0,4.0,78,0.00,,---,0.02,VWS V14.01,2013-02-19 03:43:00,
2013-02-18 19:48:00,47.6,41.4,29.96,West,261,0.0,6.0,79,0.00,,---,0.02,VWS V14.01,2013-02-19 03:48:00,
2013-02-18 19:53:00,47.6,41.4,29.96,West,266,3.0,6.0,79,0.00,,---,0.02,VWS V14.01,2013-02-19 03:53:00,
2013-02-18 19:58:00,47.6,41.4,29.96,SSW,207,0.0,6.0,79,0.00,,---,0.02,VWS V14.01,2013-02-19 03:58:00,
2013-02-18 20:03:00,47.6,41.4,29.96,WSW,256,0.0,6.0,79,0.00,,---,0.02,VWS V14.01,2013-02-19 04:03:00,
2013-02-18 20:08:00,47.6,41.8,29.96,SW,221,0.0,6.0,80,0.00,,---,0.02,VWS V14.01,2013-02-19 04:08:00,
2013-02-18 20:13:00,47.6,41.8,29.96,WSW,250,0.0,6.0,80,0.00,,---,0.02,VWS V14.01,2013-02-19 04:13:00,
2013-02-18 20:18:00,47.6,41.8,29.96,SW,229,0.0,6.0,80,0.00,,---,0.02,VWS V14.01,2013-02-19 04:18:00,
2013-02-18 20:23:00,47.6,41.8,29.96,West,269,0.0,6.0,80,0.00,,---,0.02,VWS V14.01,2013-02-19 04:23:00,
2013-02-18 20:28:00,47.6,41.8,29.96,SW,227,0.0,6.0,80,0.00,,---,0.02,VWS V14.01,2013-02-19 04:28:00,
2013-02-18 20:33:00,47.6,41.8,29.96,West,261,0.0,0.0,80,0.00,,---,0.02,VWS V14.01,2013-02-19 04:33:00,
2013-02-18 20:38:00,47.6,41.8,29.96,SW,218,0.0,3.0,80,0.00,,---,0.02,VWS V14.01,2013-02-19 04:38:00,
2013-02-18 20:44:00,47.6,41.4,29.96,SW,215,0.0,4.0,79,0.00,,---,0.02,VWS V14.01,2013-02-19 04:44:00,
2013-02-18 20:49:00,47.6,41.4,29.96,SW,215,0.0,4.0,79,0.00,,---,0.02,VWS V14.01,2013-02-19 04:49:00,
2013-02-18 20:54:00,47.6,41.1,29.96,SSW,213,0.0,4.0,78,0.00,,---,0.02,VWS V14.01,2013-02-19 04:54:00,
2013-02-18 20:59:00,47.6,41.1,29.96,SW,214,0.0,4.0,78,0.00,,---,0.02,VWS V14.01,2013-02-19 04:59:00,
2013-02-18 21:00:00,47.6,41.1,29.96,SW,215,1.0,4.0,78,0.00,,---,0.02,VWS V14.01,2013-02-19 05:00:00,
2013-02-18 21:02:00,47.7,41.2,29.96,SW,215,0.0,0.0,78,0.00,,---,0.02,VWS V14.01,2013-02-19 05:02:00,
2013-02-18 21:07:00,47.7,41.5,29.96,SSW,207,0.0,4.0,79,0.00,,---,0.02,VWS V14.01,2013-02-19 05:07:00,
2013-02-18 21:12:00,47.7,41.5,29.96,SW,219,0.0,4.0,79,0.00,,---,0.02,VWS V14.01,2013-02-19 05:12:00,
2013-02-18 21:17:00,47.7,41.5,29.96,SW,219,0.0,4.0,79,0.00,,---,0.02,VWS V14.01,2013-02-19 05:17:00,
2013-02-18 21:22:00,47.7,41.5,29.96,SW,219,0.0,4.0,79,0.00,,---,0.02,VWS V14.01,2013-02-19 05:22:00,
2013-02-18 21:28:00,47.7,41.8,29.96,SW,219,0.0,4.0,80,0.00,,---,0.02,VWS V14.01,2013-02-19 05:28:00,
2013-02-18 21:33:00,47.6,41.4,29.96,SW,219,0.0,0.0,79,0.00,,---,0.02,VWS V14.01,2013-02-19 05:33:00,
2013-02-18 21:38:00,47.6,41.4,29.96,SW,219,0.0,0.0,79,0.00,,---,0.02,VWS V14.01,2013-02-19 05:38:00,
2013-02-18 21:43:00,47.4,41.2,29.96,SW,219,0.0,0.0,79,0.00,,---,0.02,VWS V14.01,2013-02-19 05:43:00,
2013-02-18 21:48:00,47.4,40.9,29.96,SW,219,0.0,0.0,78,0.00,,---,0.02,VWS V14.01,2013-02-19 05:48:00,
2013-02-18 21:53:00,47.3,41.1,29.96,SW,219,0.0,0.0,79,0.00,,---,0.02,VWS V14.01,2013-02-19 05:53:00,
2013-02-18 21:58:00,47.3,41.1,29.96,SW,219,0.0,0.0,79,0.00,,---,0.02,VWS V14.01,2013-02-19 05:58:00,
2013-02-18 22:03:00,47.1,41.3,29.96,SW,219,0.0,0.0,80,0.00,,---,0.02,VWS V14.01,2013-02-19 06:03:00,
2013-02-18 22:08:00,47.0,41.2,29.96,SW,219,0.0,0.0,80,0.00,,---,0.02,VWS V14.01,2013-02-19 06:08:00,
2013-02-18 22:13:00,46.8,41.0,29.96,SW,219,0.0,0.0,80,0.00,,---,0.02,VWS V14.01,2013-02-19 06:13:00,
2013-02-18 22:18:00,46.7,41.2,29.96,SW,219,0.0,0.0,81,0.00,,---,0.02,VWS V14.01,2013-02-19 06:18:00,
2013-02-18 22:23:00,46.5,41.0,29.96,SW,219,0.0,0.0,81,0.00,,---,0.02,VWS V14.01,2013-02-19 06:23:00,
2013-02-18 22:28:00,46.4,41.2,29.96,SW,219,0.0,0.0,82,0.00,,---,0.02,VWS V14.01,2013-02-19 06:28:00,
2013-02-18 22:33:00,46.2,41.0,29.96,SW,219,0.0,0.0,82,0.00,,---,0.02,VWS V14.01,2013-02-19 06:33:00,
2013-02-18 22:38:00,46.1,41.2,29.96,SW,219,0.0,0.0,83,0.00,,---,0.02,VWS V14.01,2013-02-19 06:38:00,
2013-02-18 22:43:00,46.0,41.1,29.96,SW,219,0.0,0.0,83,0.00,,---,0.02,VWS V14.01,2013-02-19 06:43:00,
2013-02-18 22:48:00,45.8,40.9,29.96,SW,219,0.0,0.0,83,0.00,,---,0.02,VWS V14.01,2013-02-19 06:48:00,
2013-02-18 22:53:00,45.8,40.6,29.96,SW,219,0.0,0.0,82,0.00,,---,0.02,VWS V14.01,2013-02-19 06:53:00,
2013-02-18 22:58:00,45.8,40.6,29.96,SW,219,0.0,0.0,82,0.00,,---,0.02,VWS V14.01,2013-02-19 06:58:00,
2013-02-18 23:03:00,45.8,40.3,29.96,SW,219,0.0,0.0,81,0.00,,---,0.02,VWS V14.01,2013-02-19 07:03:00,
2013-02-18 23:08:00,46.0,40.5,29.96,SW,219,0.0,0.0,81,0.00,,---,0.02,VWS V14.01,2013-02-19 07:08:00,
2013-02-18 23:13:00,46.0,40.5,29.96,SW,219,0.0,0.0,81,0.00,,---,0.02,VWS V14.01,2013-02-19 07:13:00,
2013-02-18 23:18:00,46.0,40.5,29.95,SW,219,0.0,0.0,81,0.00,,---,0.02,VWS V14.01,2013-02-19 07:18:00,
2013-02-18 23:23:00,46.0,40.5,29.95,SW,219,0.0,0.0,81,0.00,,---,0.02,VWS V14.01,2013-02-19 07:23:00,
2013-02-18 23:28:00,46.0,40.5,29.95,SW,219,0.0,0.0,81,0.00,,---,0.02,VWS V14.01,2013-02-19 07:28:00,
2013-02-18 23:33:00,46.0,40.5,29.94,SW,219,0.0,0.0,81,0.00,,---,0.02,VWS V14.01,2013-02-19 07:33:00,
2013-02-18 23:38:00,46.0,40.5,29.94,SW,219,0.0,0.0,81,0.00,,---,0.02,VWS V14.01,2013-02-19 07:38:00,
2013-02-18 23:43:00,46.0,40.8,29.94,SW,219,0.0,0.0,82,0.00,,---,0.02,VWS V14.01,2013-02-19 07:43:00,
2013-02-18 23:48:00,46.0,40.8,29.94,SW,219,0.0,0.0,82,0.00,,---,0.02,VWS V14.01,2013-02-19 07:48:00,
2013-02-18 23:54:00,46.0,40.8,29.94,SW,219,0.0,0.0,82,0.00,,---,0.02,VWS V14.01,2013-02-19 07:54:00,
2013-02-18 23:59:00,46.1,40.6,29.94,WSW,246,0.0,0.0,81,0.00,,---,0.02,VWS V14.01,2013-02-19 07:59:00,